| time (UTC) | temp F | wind direction | speed MPH | gust MPH | rain 1hr in | rain 24hr in | rain mn in | humidity % | barometer mb |
| 20260504081504 | 35 | 234 | 0.0 | 1.0 | 0.00 | 0.00 | 0.00 | 81 | 1014.0 |
| 20260504044504 | 40 | 210 | 2.0 | 7.0 | 0.00 | 0.00 | 0.00 | 75 | 1013.8 |
| 20260504043004 | 40 | 246 | 2.0 | 7.0 | 0.00 | 0.00 | 0.00 | 75 | 1013.5 |
| 20260504041504 | 40 | 237 | 1.0 | 6.0 | 0.00 | 0.00 | 0.00 | 75 | 1013.5 |
| 20260504040004 | 40 | 230 | 2.0 | 3.0 | 0.00 | 0.00 | 0.00 | 75 | 1013.4 |
| 20260504034504 | 39 | 234 | 1.0 | 3.0 | 0.00 | 0.00 | 0.00 | 76 | 1013.3 |
| 20260504033004 | 39 | 237 | 2.0 | 3.0 | 0.00 | 0.00 | 0.00 | 76 | 1013.3 |
| 20260504031504 | 39 | 222 | 2.0 | 6.0 | 0.00 | 0.00 | 0.00 | 75 | 1013.3 |
| 20260504024504 | 40 | 245 | 2.0 | 3.0 | 0.00 | 0.00 | 0.00 | 74 | 1013.4 |
| 20260504021503 | 41 | 246 | 1.0 | 5.0 | 0.00 | 0.00 | 0.00 | 71 | 1013.4 |
| 20260504014504 | 42 | 248 | 2.0 | 6.0 | 0.00 | 0.00 | 0.00 | 67 | 1013.2 |
| 20260504013004 | 44 | 245 | 1.0 | 3.0 | 0.00 | 0.00 | 0.00 | 64 | 1013.1 |
| 20260504011504 | 45 | 241 | 1.0 | 3.0 | 0.00 | 0.00 | 0.00 | 63 | 1013.0 |
| 20260504010004 | 46 | 238 | 2.0 | 3.0 | 0.00 | 0.00 | 0.00 | 60 | 1012.8 |
| 20260504004503 | 47 | 249 | 1.0 | 3.0 | 0.00 | 0.00 | 0.00 | 56 | 1012.9 |
| 20260504000004 | 50 | 253 | 2.0 | 6.0 | 0.00 | 0.00 | 0.00 | 52 | 1012.4 |
| 20260503234504 | 51 | 272 | 2.0 | 12.0 | 0.00 | 0.00 | 0.00 | 50 | 1012.3 |
| 20260503233004 | 51 | 232 | 2.0 | 9.0 | 0.00 | 0.00 | 0.00 | 49 | 1012.1 |
| 20260503231504 | 52 | 245 | 3.0 | 10.0 | 0.00 | 0.00 | 0.00 | 48 | 1012.1 |
| 20260503230003 | 53 | 278 | 3.0 | 10.0 | 0.00 | 0.00 | 0.00 | 47 | 1012.0 |
| 20260503224504 | 54 | 305 | 2.0 | 12.0 | 0.00 | 0.00 | 0.00 | 46 | 1012.0 |
| 20260503223003 | 54 | 249 | 4.0 | 14.0 | 0.00 | 0.00 | 0.00 | 45 | 1012.0 |
| 20260503221504 | 54 | 270 | 3.0 | 10.0 | 0.00 | 0.00 | 0.00 | 45 | 1011.9 |
| 20260503220004 | 54 | 312 | 2.0 | 9.0 | 0.00 | 0.00 | 0.00 | 45 | 1011.9 |
| 20260503214504 | 54 | 307 | 2.0 | 10.0 | 0.00 | 0.00 | 0.00 | 44 | 1011.9 |
| 20260503213004 | 55 | 319 | 5.0 | 16.0 | 0.00 | 0.00 | 0.00 | 42 | 1011.7 |
| 20260503210003 | 55 | 292 | 5.0 | 15.0 | 0.00 | 0.00 | 0.00 | 43 | 1011.6 |
| 20260503204504 | 55 | 295 | 3.0 | 12.0 | 0.00 | 0.00 | 0.00 | 41 | 1011.5 |
| 20260503203003 | 56 | 232 | 4.0 | 15.0 | 0.00 | 0.00 | 0.00 | 39 | 1011.4 |
| 20260503201504 | 57 | 245 | 5.0 | 14.0 | 0.00 | 0.00 | 0.00 | 40 | 1011.8 |
| 20260503200004 | 57 | 278 | 7.0 | 17.0 | 0.00 | 0.00 | 0.00 | 38 | 1011.8 |
| 20260503193004 | 54 | 328 | 5.0 | 15.0 | 0.00 | 0.00 | 0.00 | 42 | 1012.2 |
| 20260503191504 | 56 | 339 | 5.0 | 14.0 | 0.00 | 0.00 | 0.00 | 40 | 1012.4 |
| 20260503190004 | 54 | 277 | 3.0 | 15.0 | 0.00 | 0.00 | 0.00 | 42 | 1012.5 |
| 20260503184504 | 54 | 263 | 3.0 | 17.0 | 0.00 | 0.00 | 0.00 | 43 | 1012.8 |
| 20260503183003 | 53 | 10 | 6.0 | 21.0 | 0.00 | 0.00 | 0.00 | 44 | 1012.9 |
| 20260503181505 | 53 | 313 | 3.0 | 12.0 | 0.00 | 0.00 | 0.00 | 43 | 1013.1 |
| 20260503180004 | 53 | 300 | 6.0 | 13.0 | 0.00 | 0.00 | 0.00 | 44 | 1013.1 |
| 20260503174504 | 54 | 304 | 3.0 | 22.0 | 0.00 | 0.00 | 0.00 | 44 | 1013.2 |
| 20260503173004 | 51 | 304 | 5.0 | 13.0 | 0.00 | 0.00 | 0.00 | 45 | 1013.2 |
| 20260503171503 | 51 | 256 | 4.0 | 21.0 | 0.00 | 0.00 | 0.00 | 44 | 1013.4 |